Location: Bli��� Lhota
(48.7570°N, 14.0120°E)
Time: 03:12:04
(UTC+00:00)

CZ-2C R/B - Pass Details

Date: 18 September 2020
Orbit: 704 x 907 km, 98.1° (Epoch: 24 October)

Event Time Altitude Azimuth Distance (km) Brightness Sun altitude
Rises 17:56:29 0° 168° (SSE) 3,245 6.0 -8.5°
Reaches altitude 10° 17:58:44 10° 169° (S) 2,350 5.3 -8.8°
Maximum altitude 18:03:57 79° 257° (WSW) 844 3.3 -9.7°
Drops below altitude 10° 18:09:32 10° 344° (NNW) 2,502 6.1 -10.6°
Sets 18:11:59 0° 346° (NNW) 3,469 6.8 -11.0°
